This is the latest recevied weather packets stored in our database for station/object OM8AKX-12. If no packets are shown the sender has not sent any weather packets the latest 10 day(s).
| Time | Temp. | Humidity | Pressure | Rain* | Wind** | Luminosity | Snow |
|---|---|---|---|---|---|---|---|
| 1777454673 | 12.78° C | 28% | 1018.1 hPa | - | - | - | - |
| 1777453773 | 12.78° C | 27% | 1018.2 hPa | - | - | - | - |
| 1777452873 | 12.22° C | 27% | 1018.2 hPa | - | - | - | - |
| 1777451973 | 12.78° C | 27% | 1018.2 hPa | - | - | - | - |
| 1777451073 | 12.22° C | 27% | 1018.1 hPa | - | - | - | - |
| 1777450173 | 11.67° C | 29% | 1018.2 hPa | - | - | - | - |
| 1777449273 | 11.67° C | 28% | 1018.3 hPa | - | - | - | - |
| 1777448373 | 11.67° C | 27% | 1018.5 hPa | - | - | - | - |
| 1777447473 | 11.11° C | 28% | 1018.4 hPa | - | - | - | - |
| 1777446572 | 10.56° C | 29% | 1018.4 hPa | - | - | - | - |
| 1777445673 | 9.44° C | 30% | 1018.4 hPa | - | - | - | - |
| 1777444773 | 9.44° C | 31% | 1018.4 hPa | - | - | - | - |
| 1777443872 | 8.89° C | 33% | 1018.5 hPa | - | - | - | - |
| 1777442972 | 7.78° C | 34% | 1018.5 hPa | - | - | - | - |
| 1777442072 | 7.22° C | 34% | 1018.4 hPa | - | - | - | - |
| 1777441172 | 7.22° C | 36% | 1018.2 hPa | - | - | - | - |
| 1777440272 | 6.67° C | 38% | 1018.2 hPa | - | - | - | - |
| 1777439372 | 6.11° C | 39% | 1018.1 hPa | - | - | - | - |
| 1777438472 | 3.89° C | 49% | 1018.1 hPa | - | - | - | - |
| 1777437572 | 3.33° C | 48% | 1018.1 hPa | - | - | - | - |
| 1777436672 | 2.78° C | 48% | 1018.1 hPa | - | - | - | - |
| 1777435772 | 2.78° C | 47% | 1018 hPa | - | - | - | - |
| 1777434872 | 2.78° C | 46% | 1018 hPa | - | - | - | - |
| 1777433972 | 2.22° C | 46% | 1017.9 hPa | - | - | - | - |
| 1777433072 | 2.78° C | 45% | 1017.9 hPa | - | - | - | - |
* Rain since midnight (hover to see other rain measurements)
** Current wind speed in m/s (hover to see current wind gust speed)